Home > Weather > Vreden > Past weeks

Flag for Germany Past Weather in Vreden, North Rhine-Westphalia, Germany — Yesterday and Last 2 Weeks

Now
56 °F

Fog.


Feels Like: 56 °F
Forecast: 54 / 70 °F
Wind: 3 mph from Northeast

Location: Twenthe

Current Time: May 27, 2016 at 12:36:11 AM

Latest Report: May 26, 2016 at 11:00 PM


Visibility: 6 mi

Pressure: 30.03 "Hg

Humidity: 85%

Dew Point: 51 °F

Location of VredenLocation

Past Weather in Vreden — Graph

°F

Vreden Temperature Yesterday

Maximum temperature yesterday: 67 °F (at 6:00 PM)
Minimum temperature yesterday: 42 °F (at 5:00 AM)
Average temperature yesterday: 56 °F

High & Low Weather Summary for the Past Weeks

 TemperatureHumidityPressure
High76 °F (May 12, 3:00 PM)100% (May 23, 5:00 AM)30.12 "Hg (May 23, 5:00 AM)
Low35 °F (May 16, 6:00 AM)26% (May 13, 2:00 PM)29.53 "Hg (May 12, 7:00 PM)
Average56 °F76%29.89 "Hg
* Reported May 11 11:00 PM — May 26 11:00 PM, Vreden, Weather by CustomWeather, © 2016

Note: Actual official high and low records may vary slightly from our data, if they occured in-between our weather recording intervals... More about our weather records

Advertising

Vreden Weather History for the Previous 24 Hours

Scroll right to see more
 ConditionsComfort  
Time TempWeatherWind HumidityBarometerVisibility
11:00 PM
Thu, May 26
56 °FFog.3 mph85%30.03 "Hg6 mi
10:00 PM58 °FOvercast.3 mph78%30.02 "Hg7 mi
9:00 PM61 °FOvercast.3 mph70%30.01 "Hg8 mi
8:00 PM63 °FOvercast.5 mph64%30.01 "Hg9 mi
7:00 PM66 °FOvercast.3 mph61%30.01 "Hg9 mi
6:00 PM67 °FPassing clouds.3 mph57%30.01 "Hg7 mi
5:00 PM65 °FOvercast.3 mph61%30.02 "Hg7 mi
4:00 PM66 °FOvercast.2 mph53%30.03 "Hg8 mi
3:00 PM65 °FOvercast.1 mph57%30.03 "Hg9 mi
2:00 PM65 °FOvercast.2 mph57%30.04 "Hg7 mi
1:00 PM64 °FOvercast.2 mph59%30.04 "Hg7 mi
11:00 AM61 °FOvercast.2 mph69%30.04 "Hg6 mi
10:00 AM61 °FPassing clouds.1 mph74%30.04 "Hg6 mi
9:00 AM58 °FSunny.1 mph80%30.04 "Hg5 mi
8:00 AM52 °FScattered clouds.No wind99%30.03 "Hg2 mi
6:00 AM42 °FFog.No wind100%30.02 "Hg1 mi
5:00 AM42 °FFog.No wind100%30.01 "Hg0 mi
4:00 AM42 °FFog.1 mph100%30.01 "Hg0 mi
3:00 AM44 °FFog.No wind100%30.01 "Hg0 mi
2:00 AM44 °FFog.No wind100%30.01 "Hg0 mi
1:00 AM45 °FFog.1 mph100%30.01 "Hg0 mi
12:00 AM46 °FFog.1 mph100%30.01 "Hg0 mi
Weather by CustomWeather, © 2016

See weather overviewHow to use our weather pages